Time,TemperatureF,DewpointF,PressureIn,WindDirection,WindDirectionDegrees,WindSpeedMPH,WindSpeedGustMPH,Humidity,HourlyPrecipIn,Conditions,Clouds,dailyrainin,SoftwareType,DateUTC
2013-08-28 00:00:00,79.4,72.7,29.85,South,188,3.0,12.0,80,0.00,,---,0.00,VWS V14.01,2013-08-28 04:00:00,
2013-08-28 00:01:00,79.4,72.7,29.85,SW,232,5.0,5.0,80,0.00,,---,0.00,VWS V14.01,2013-08-28 04:01:00,
2013-08-28 00:02:00,79.4,72.7,29.85,SSW,200,0.0,7.0,80,0.00,,---,0.00,VWS V14.01,2013-08-28 04:02:00,
2013-08-28 00:07:00,79.2,72.5,29.84,WSW,245,2.0,9.0,80,0.00,,---,0.00,VWS V14.01,2013-08-28 04:07:00,
2013-08-28 00:12:00,79.2,72.5,29.84,WSW,239,1.0,9.0,80,0.00,,---,0.00,VWS V14.01,2013-08-28 04:12:00,
2013-08-28 00:17:00,79.2,72.5,29.84,WSW,248,3.0,9.0,80,0.00,,---,0.00,VWS V14.01,2013-08-28 04:17:00,
2013-08-28 00:22:00,79.1,72.0,29.83,SE,134,4.0,10.0,79,0.00,,---,0.00,VWS V14.01,2013-08-28 04:22:00,
2013-08-28 00:27:00,79.1,72.0,29.83,NNW,342,2.0,10.0,79,0.00,,---,0.00,VWS V14.01,2013-08-28 04:27:00,
2013-08-28 00:30:00,79.0,71.9,29.83,ESE,107,1.0,10.0,79,0.00,,---,0.00,VWS V14.01,2013-08-28 04:30:00,
2013-08-28 00:32:00,79.0,71.9,29.83,SW,229,6.0,9.0,79,0.00,,---,0.00,VWS V14.01,2013-08-28 04:32:00,
2013-08-28 00:37:00,79.0,71.9,29.83,SSW,210,4.0,9.0,79,0.00,,---,0.00,VWS V14.01,2013-08-28 04:37:00,
2013-08-28 00:42:00,79.0,71.9,29.83,SW,219,1.0,9.0,79,0.00,,---,0.00,VWS V14.01,2013-08-28 04:42:00,
2013-08-28 00:47:00,79.0,71.6,29.83,WNW,283,2.0,10.0,78,0.00,,---,0.00,VWS V14.01,2013-08-28 04:47:00,
2013-08-28 00:53:00,79.0,71.9,29.83,NNW,327,1.0,10.0,79,0.00,,---,0.00,VWS V14.01,2013-08-28 04:53:00,
2013-08-28 00:58:00,79.0,71.6,29.83,SW,236,2.0,10.0,78,0.00,,---,0.00,VWS V14.01,2013-08-28 04:58:00,
2013-08-28 01:00:00,79.0,71.6,29.83,SE,127,1.0,10.0,78,0.00,,---,0.00,VWS V14.01,2013-08-28 05:00:00,
2013-08-28 01:03:00,78.9,71.5,29.83,SW,220,4.0,4.0,78,0.00,,---,0.00,VWS V14.01,2013-08-28 05:03:00,
2013-08-28 01:08:00,78.9,71.5,29.83,SW,223,1.0,6.0,78,0.00,,---,0.00,VWS V14.01,2013-08-28 05:08:00,
2013-08-28 01:13:00,78.8,71.7,29.83,WSW,257,0.0,6.0,79,0.00,,---,0.00,VWS V14.01,2013-08-28 05:13:00,
2013-08-28 01:18:00,78.6,71.6,29.83,NW,311,2.0,6.0,79,0.00,,---,0.00,VWS V14.01,2013-08-28 05:18:00,
2013-08-28 01:23:00,78.6,71.6,29.83,East,98,2.0,10.0,79,0.00,,---,0.00,VWS V14.01,2013-08-28 05:23:00,
2013-08-28 01:28:00,78.5,71.4,29.83,SW,215,4.0,10.0,79,0.00,,---,0.00,VWS V14.01,2013-08-28 05:28:00,
2013-08-28 01:30:00,78.4,71.3,29.83,ESE,122,2.0,10.0,79,0.00,,---,0.00,VWS V14.01,2013-08-28 05:30:00,
2013-08-28 01:35:00,78.4,71.3,29.82,SSE,166,2.0,6.0,79,0.00,,---,0.00,VWS V14.01,2013-08-28 05:35:00,
2013-08-28 01:40:00,78.3,71.3,29.82,SSW,200,2.0,9.0,79,0.00,,---,0.00,VWS V14.01,2013-08-28 05:40:00,
2013-08-28 01:45:00,78.2,71.5,29.82,WSW,257,5.0,9.0,80,0.00,,---,0.00,VWS V14.01,2013-08-28 05:45:00,
2013-08-28 01:50:00,78.1,71.4,29.82,WSW,238,2.0,9.0,80,0.00,,---,0.00,VWS V14.01,2013-08-28 05:50:00,
2013-08-28 01:55:00,77.9,71.2,29.83,SSW,198,3.0,9.0,80,0.00,,---,0.00,VWS V14.01,2013-08-28 05:55:00,
2013-08-28 02:00:00,77.8,71.1,29.83,SSW,200,1.0,9.0,80,0.00,,---,0.00,VWS V14.01,2013-08-28 06:00:00,
2013-08-28 02:05:00,77.7,71.4,29.83,NW,305,1.0,5.0,81,0.00,,---,0.00,VWS V14.01,2013-08-28 06:05:00,
2013-08-28 02:10:00,77.6,71.3,29.83,WSW,256,5.0,7.0,81,0.00,,---,0.00,VWS V14.01,2013-08-28 06:10:00,
2013-08-28 02:15:00,77.5,71.2,29.83,West,278,5.0,7.0,81,0.00,,---,0.00,VWS V14.01,2013-08-28 06:15:00,
2013-08-28 02:20:00,77.4,71.1,29.83,East,97,3.0,8.0,81,0.00,,---,0.00,VWS V14.01,2013-08-28 06:20:00,
2013-08-28 02:25:00,77.4,71.1,29.83,ESE,122,0.0,9.0,81,0.00,,---,0.00,VWS V14.01,2013-08-28 06:25:00,
2013-08-28 02:30:00,77.3,71.0,29.82,WSW,245,1.0,2.0,81,0.00,,---,0.00,VWS V14.01,2013-08-28 06:30:00,
2013-08-28 02:35:00,77.3,71.0,29.82,SSE,160,2.0,9.0,81,0.00,,---,0.00,VWS V14.01,2013-08-28 06:35:00,
2013-08-28 02:40:00,77.3,71.0,29.82,SSW,201,3.0,9.0,81,0.00,,---,0.00,VWS V14.01,2013-08-28 06:40:00,
2013-08-28 02:45:00,77.3,71.0,29.82,South,191,1.0,9.0,81,0.00,,---,0.00,VWS V14.01,2013-08-28 06:45:00,
2013-08-28 02:50:00,77.4,71.1,29.82,NE,36,2.0,9.0,81,0.00,,---,0.00,VWS V14.01,2013-08-28 06:50:00,
2013-08-28 02:55:00,77.4,70.8,29.81,SSE,167,6.0,9.0,80,0.00,,---,0.00,VWS V14.01,2013-08-28 06:55:00,
2013-08-28 03:00:00,77.4,70.8,29.81,SW,214,7.0,7.0,80,0.00,,---,0.00,VWS V14.01,2013-08-28 07:00:00,
2013-08-28 03:05:00,77.4,70.8,29.80,WSW,248,6.0,10.0,80,0.00,,---,0.00,VWS V14.01,2013-08-28 07:05:00,
2013-08-28 03:10:00,77.3,70.7,29.81,West,279,2.0,10.0,80,0.00,,---,0.00,VWS V14.01,2013-08-28 07:10:00,
2013-08-28 03:15:00,77.2,70.6,29.81,SW,235,2.0,10.0,80,0.00,,---,0.00,VWS V14.01,2013-08-28 07:15:00,
2013-08-28 03:20:00,77.1,70.8,29.81,West,259,1.0,10.0,81,0.00,,---,0.00,VWS V14.01,2013-08-28 07:20:00,
2013-08-28 03:25:00,76.9,70.6,29.81,WSW,252,6.0,10.0,81,0.00,,---,0.00,VWS V14.01,2013-08-28 07:25:00,
2013-08-28 03:30:00,77.0,70.7,29.80,South,177,2.0,3.0,81,0.00,,---,0.00,VWS V14.01,2013-08-28 07:30:00,
2013-08-28 03:35:00,77.0,70.4,29.81,SE,125,3.0,10.0,80,0.00,,---,0.00,VWS V14.01,2013-08-28 07:35:00,
2013-08-28 03:40:00,77.0,70.4,29.80,West,270,4.0,10.0,80,0.00,,---,0.00,VWS V14.01,2013-08-28 07:40:00,
2013-08-28 03:45:00,76.9,70.3,29.80,West,260,6.0,11.0,80,0.00,,---,0.00,VWS V14.01,2013-08-28 07:45:00,
2013-08-28 03:51:00,76.9,70.3,29.80,SW,218,2.0,11.0,80,0.00,,---,0.00,VWS V14.01,2013-08-28 07:51:00,
2013-08-28 03:56:00,76.8,70.2,29.81,NNW,343,5.0,11.0,80,0.00,,---,0.00,VWS V14.01,2013-08-28 07:56:00,
2013-08-28 04:00:00,76.7,70.1,29.81,WSW,250,3.0,11.0,80,0.00,,---,0.00,VWS V14.01,2013-08-28 08:00:00,
2013-08-28 04:01:00,76.7,70.1,29.81,West,278,1.0,5.0,80,0.00,,---,0.00,VWS V14.01,2013-08-28 08:01:00,
2013-08-28 04:06:00,76.6,70.0,29.81,NE,40,2.0,6.0,80,0.00,,---,0.00,VWS V14.01,2013-08-28 08:06:00,
2013-08-28 04:11:00,76.6,70.0,29.81,West,271,1.0,10.0,80,0.00,,---,0.00,VWS V14.01,2013-08-28 08:11:00,
2013-08-28 04:16:00,76.6,70.0,29.82,SSW,194,0.0,10.0,80,0.00,,---,0.00,VWS V14.01,2013-08-28 08:16:00,
2013-08-28 04:21:00,76.5,69.9,29.82,WNW,294,3.0,10.0,80,0.00,,---,0.00,VWS V14.01,2013-08-28 08:21:00,
2013-08-28 04:26:00,76.4,69.8,29.81,SW,235,5.0,10.0,80,0.00,,---,0.00,VWS V14.01,2013-08-28 08:26:00,
2013-08-28 04:30:00,76.3,69.7,29.82,West,264,3.0,10.0,80,0.00,,---,0.00,VWS V14.01,2013-08-28 08:30:00,
2013-08-28 04:31:00,76.3,69.7,29.81,WSW,240,2.0,5.0,80,0.00,,---,0.00,VWS V14.01,2013-08-28 08:31:00,
2013-08-28 04:36:00,76.2,69.6,29.81,West,259,0.0,6.0,80,0.00,,---,0.00,VWS V14.01,2013-08-28 08:36:00,
2013-08-28 04:41:00,76.0,69.8,29.81,West,260,1.0,6.0,81,0.00,,---,0.00,VWS V14.01,2013-08-28 08:41:00,
2013-08-28 04:46:00,75.9,69.7,29.81,SSW,208,2.0,6.0,81,0.00,,---,0.00,VWS V14.01,2013-08-28 08:46:00,
2013-08-28 04:51:00,75.8,69.6,29.81,SW,229,0.0,6.0,81,0.00,,---,0.00,VWS V14.01,2013-08-28 08:51:00,
2013-08-28 04:56:00,75.7,69.5,29.81,WSW,242,2.0,7.0,81,0.00,,---,0.00,VWS V14.01,2013-08-28 08:56:00,
2013-08-28 05:00:00,75.5,69.3,29.81,WNW,286,4.0,7.0,81,0.00,,---,0.00,VWS V14.01,2013-08-28 09:00:00,
2013-08-28 05:01:00,75.5,69.3,29.81,SW,231,2.0,4.0,81,0.00,,---,0.00,VWS V14.01,2013-08-28 09:01:00,
2013-08-28 05:06:00,75.4,69.2,29.81,West,259,2.0,5.0,81,0.00,,---,0.00,VWS V14.01,2013-08-28 09:06:00,
2013-08-28 05:11:00,75.4,69.2,29.81,SSW,203,0.0,5.0,81,0.00,,---,0.00,VWS V14.01,2013-08-28 09:11:00,
2013-08-28 05:16:00,75.3,69.1,29.81,WNW,285,2.0,5.0,81,0.00,,---,0.00,VWS V14.01,2013-08-28 09:16:00,
2013-08-28 05:21:00,75.2,69.0,29.81,WSW,246,3.0,5.0,81,0.00,,---,0.00,VWS V14.01,2013-08-28 09:21:00,
2013-08-28 05:26:00,75.1,68.9,29.81,WNW,292,0.0,5.0,81,0.00,,---,0.00,VWS V14.01,2013-08-28 09:26:00,
2013-08-28 05:30:00,74.9,69.0,29.81,SSW,192,1.0,5.0,82,0.00,,---,0.00,VWS V14.01,2013-08-28 09:30:00,
2013-08-28 05:31:00,74.9,69.0,29.81,West,280,1.0,2.0,82,0.00,,---,0.00,VWS V14.01,2013-08-28 09:31:00,
2013-08-28 05:34:00,74.8,68.9,29.81,SW,222,0.0,2.0,82,0.00,,---,0.00,VWS V14.01,2013-08-28 09:34:00,
2013-08-28 05:39:00,74.7,68.8,29.81,West,280,1.0,2.0,82,0.00,,---,0.00,VWS V14.01,2013-08-28 09:39:00,
2013-08-28 05:44:00,74.5,68.7,29.81,SSW,212,0.0,3.0,82,0.00,,---,0.00,VWS V14.01,2013-08-28 09:44:00,
2013-08-28 05:49:00,74.3,68.8,29.81,SSW,210,0.0,3.0,83,0.00,,---,0.00,VWS V14.01,2013-08-28 09:49:00,
2013-08-28 05:54:00,74.3,68.8,29.81,West,266,0.0,3.0,83,0.00,,---,0.00,VWS V14.01,2013-08-28 09:54:00,
2013-08-28 05:59:00,74.2,68.7,29.81,West,266,0.0,3.0,83,0.00,,---,0.00,VWS V14.01,2013-08-28 09:59:00,
2013-08-28 06:00:00,74.1,68.6,29.81,SW,219,0.0,3.0,83,0.00,,---,0.00,VWS V14.01,2013-08-28 10:00:00,
2013-08-28 06:04:00,74.0,68.5,29.81,SW,219,0.0,0.0,83,0.00,,---,0.00,VWS V14.01,2013-08-28 10:04:00,
2013-08-28 06:09:00,73.7,68.2,29.81,SW,219,0.0,0.0,83,0.00,,---,0.00,VWS V14.01,2013-08-28 10:09:00,
2013-08-28 06:14:00,73.6,68.5,29.81,SW,214,0.0,0.0,84,0.00,,---,0.00,VWS V14.01,2013-08-28 10:14:00,
2013-08-28 06:19:00,73.5,68.4,29.81,SW,235,0.0,2.0,84,0.00,,---,0.00,VWS V14.01,2013-08-28 10:19:00,
2013-08-28 06:24:00,73.3,68.2,29.81,SW,232,0.0,2.0,84,0.00,,---,0.00,VWS V14.01,2013-08-28 10:24:00,
2013-08-28 06:29:00,73.3,68.2,29.81,WSW,257,0.0,2.0,84,0.00,,---,0.00,VWS V14.01,2013-08-28 10:29:00,
2013-08-28 06:30:00,73.3,68.2,29.81,WSW,257,0.0,2.0,84,0.00,,---,0.00,VWS V14.01,2013-08-28 10:30:00,
2013-08-28 06:34:00,73.1,68.0,29.81,SSW,194,0.0,0.0,84,0.00,,---,0.00,VWS V14.01,2013-08-28 10:34:00,
2013-08-28 06:39:00,73.1,68.0,29.81,SSW,208,0.0,2.0,84,0.00,,---,0.00,VWS V14.01,2013-08-28 10:39:00,
2013-08-28 06:44:00,72.9,68.1,29.81,SW,228,0.0,2.0,85,0.00,,---,0.00,VWS V14.01,2013-08-28 10:44:00,
2013-08-28 06:49:00,72.9,68.1,29.81,ESE,121,0.0,2.0,85,0.00,,---,0.00,VWS V14.01,2013-08-28 10:49:00,
2013-08-28 06:54:00,72.9,67.8,29.81,West,277,0.0,2.0,84,0.00,,---,0.00,VWS V14.01,2013-08-28 10:54:00,
2013-08-28 06:59:00,72.8,68.0,29.81,WSW,238,3.0,3.0,85,0.00,,---,0.00,VWS V14.01,2013-08-28 10:59:00,
2013-08-28 07:00:00,72.8,68.0,29.81,SW,235,0.0,3.0,85,0.00,,---,0.00,VWS V14.01,2013-08-28 11:00:00,
2013-08-28 07:04:00,72.8,67.7,29.81,SW,222,0.0,1.0,84,0.00,,---,0.00,VWS V14.01,2013-08-28 11:04:00,
2013-08-28 07:09:00,72.7,67.6,29.81,SW,219,0.0,2.0,84,0.00,,---,0.00,VWS V14.01,2013-08-28 11:09:00,
2013-08-28 07:14:00,72.7,67.6,29.81,SW,233,1.0,2.0,84,0.00,,---,0.00,VWS V14.01,2013-08-28 11:14:00,
2013-08-28 07:19:00,72.8,67.7,29.81,SE,132,1.0,3.0,84,0.00,,---,0.00,VWS V14.01,2013-08-28 11:19:00,
2013-08-28 07:24:00,72.8,67.7,29.81,NE,40,0.0,3.0,84,0.00,,---,0.00,VWS V14.01,2013-08-28 11:24:00,
2013-08-28 07:29:00,72.8,67.7,29.81,West,262,1.0,3.0,84,0.00,,---,0.00,VWS V14.01,2013-08-28 11:29:00,
2013-08-28 07:30:00,72.9,67.8,29.81,WNW,293,0.0,3.0,84,0.00,,---,0.00,VWS V14.01,2013-08-28 11:30:00,
2013-08-28 07:34:00,72.9,67.8,29.81,WSW,240,0.0,3.0,84,0.00,,---,0.00,VWS V14.01,2013-08-28 11:34:00,
2013-08-28 07:39:00,73.0,67.9,29.81,SW,232,2.0,3.0,84,0.00,,---,0.00,VWS V14.01,2013-08-28 11:39:00,
2013-08-28 07:44:00,73.2,67.7,29.81,ESE,117,0.0,3.0,83,0.00,,---,0.00,VWS V14.01,2013-08-28 11:44:00,
2013-08-28 07:49:00,73.4,67.9,29.81,SW,232,0.0,4.0,83,0.00,,---,0.00,VWS V14.01,2013-08-28 11:49:00,
2013-08-28 07:54:00,73.7,67.9,29.81,West,264,1.0,5.0,82,0.00,,---,0.00,VWS V14.01,2013-08-28 11:54:00,
2013-08-28 07:59:00,73.9,68.1,29.81,WSW,243,0.0,5.0,82,0.00,,---,0.00,VWS V14.01,2013-08-28 11:59:00,
2013-08-28 08:00:00,74.0,68.2,29.81,SW,235,0.0,5.0,82,0.00,,---,0.00,VWS V14.01,2013-08-28 12:00:00,
2013-08-28 08:04:00,74.1,68.3,29.81,SSW,201,3.0,4.0,82,0.00,,---,0.00,VWS V14.01,2013-08-28 12:04:00,
2013-08-28 08:09:00,74.4,68.2,29.81,NNW,327,1.0,6.0,81,0.00,,---,0.00,VWS V14.01,2013-08-28 12:09:00,
2013-08-28 08:14:00,74.6,68.4,29.81,WSW,243,3.0,6.0,81,0.00,,---,0.00,VWS V14.01,2013-08-28 12:14:00,
2013-08-28 08:19:00,74.9,68.7,29.81,NW,304,2.0,6.0,81,0.00,,---,0.00,VWS V14.01,2013-08-28 12:19:00,
2013-08-28 08:24:00,75.2,68.6,29.81,WNW,284,1.0,6.0,80,0.00,,---,0.00,VWS V14.01,2013-08-28 12:24:00,
2013-08-28 08:29:00,75.5,68.9,29.81,WSW,255,2.0,6.0,80,0.00,,---,0.00,VWS V14.01,2013-08-28 12:29:00,
2013-08-28 08:30:00,75.5,68.9,29.81,SW,223,2.0,6.0,80,0.00,,---,0.00,VWS V14.01,2013-08-28 12:30:00,
2013-08-28 08:34:00,75.8,68.8,29.81,SSW,209,3.0,6.0,79,0.00,,---,0.00,VWS V14.01,2013-08-28 12:34:00,
2013-08-28 08:39:00,76.2,68.8,29.81,West,262,1.0,7.0,78,0.00,,---,0.00,VWS V14.01,2013-08-28 12:39:00,
2013-08-28 08:44:00,76.4,69.0,29.81,ENE,75,1.0,7.0,78,0.00,,---,0.00,VWS V14.01,2013-08-28 12:44:00,
2013-08-28 08:49:00,76.7,68.9,29.81,NW,313,5.0,7.0,77,0.00,,---,0.00,VWS V14.01,2013-08-28 12:49:00,
2013-08-28 08:54:00,76.9,68.8,29.81,WNW,296,1.0,7.0,76,0.00,,---,0.00,VWS V14.01,2013-08-28 12:54:00,
2013-08-28 08:59:00,77.2,69.1,29.81,WSW,252,1.0,7.0,76,0.00,,---,0.00,VWS V14.01,2013-08-28 12:59:00,
2013-08-28 09:00:00,77.2,69.4,29.81,NW,325,1.0,7.0,77,0.00,,---,0.00,VWS V14.01,2013-08-28 13:00:00,
2013-08-28 09:04:00,77.5,69.3,29.81,WNW,284,2.0,7.0,76,0.00,,---,0.00,VWS V14.01,2013-08-28 13:04:00,
2013-08-28 09:09:00,77.7,69.5,29.82,NW,325,4.0,7.0,76,0.00,,---,0.00,VWS V14.01,2013-08-28 13:09:00,
2013-08-28 09:14:00,77.9,69.3,29.82,WNW,283,1.0,8.0,75,0.00,,---,0.00,VWS V14.01,2013-08-28 13:14:00,
2013-08-28 09:19:00,78.3,70.1,29.82,SW,236,3.0,8.0,76,0.00,,---,0.00,VWS V14.01,2013-08-28 13:19:00,
2013-08-28 09:24:00,78.6,70.0,29.82,WNW,283,1.0,8.0,75,0.00,,---,0.00,VWS V14.01,2013-08-28 13:24:00,
2013-08-28 09:29:00,78.7,69.7,29.82,West,270,0.0,8.0,74,0.00,,---,0.00,VWS V14.01,2013-08-28 13:29:00,
2013-08-28 09:30:00,78.7,69.7,29.82,West,281,1.0,8.0,74,0.00,,---,0.00,VWS V14.01,2013-08-28 13:30:00,
2013-08-28 09:34:00,78.9,69.9,29.82,WSW,243,1.0,7.0,74,0.00,,---,0.00,VWS V14.01,2013-08-28 13:34:00,
2013-08-28 09:39:00,79.1,70.1,29.82,NNW,335,3.0,7.0,74,0.00,,---,0.00,VWS V14.01,2013-08-28 13:39:00,
2013-08-28 09:44:00,79.4,70.4,29.82,NW,325,4.0,8.0,74,0.00,,---,0.00,VWS V14.01,2013-08-28 13:44:00,
2013-08-28 09:49:00,79.6,70.6,29.83,NW,314,5.0,8.0,74,0.00,,---,0.00,VWS V14.01,2013-08-28 13:49:00,
2013-08-28 09:54:00,79.7,70.7,29.82,NW,323,5.0,8.0,74,0.00,,---,0.00,VWS V14.01,2013-08-28 13:54:00,
2013-08-28 09:59:00,80.0,71.0,29.82,SE,127,2.0,8.0,74,0.00,,---,0.00,VWS V14.01,2013-08-28 13:59:00,
2013-08-28 10:00:00,80.1,71.1,29.83,North,352,2.0,8.0,74,0.00,,---,0.00,VWS V14.01,2013-08-28 14:00:00,
2013-08-28 10:04:00,80.3,71.7,29.83,WNW,287,1.0,8.0,75,0.00,,---,0.00,VWS V14.01,2013-08-28 14:04:00,
2013-08-28 10:09:00,80.5,71.1,29.83,WSW,252,4.0,8.0,73,0.00,,---,0.00,VWS V14.01,2013-08-28 14:09:00,
2013-08-28 10:14:00,80.6,71.2,29.83,WSW,244,1.0,8.0,73,0.00,,---,0.00,VWS V14.01,2013-08-28 14:14:00,
2013-08-28 10:19:00,81.0,72.3,29.83,North,356,3.0,8.0,75,0.00,,---,0.00,VWS V14.01,2013-08-28 14:19:00,
2013-08-28 10:24:00,81.3,72.2,29.83,WNW,295,2.0,8.0,74,0.00,,---,0.00,VWS V14.01,2013-08-28 14:24:00,
2013-08-28 10:29:00,81.6,72.1,29.83,WSW,246,2.0,8.0,73,0.00,,---,0.00,VWS V14.01,2013-08-28 14:29:00,
2013-08-28 10:30:00,81.7,72.6,29.83,NNE,18,2.0,8.0,74,0.00,,---,0.00,VWS V14.01,2013-08-28 14:30:00,
2013-08-28 10:34:00,81.9,72.4,29.83,West,269,1.0,5.0,73,0.00,,---,0.00,VWS V14.01,2013-08-28 14:34:00,
2013-08-28 10:39:00,82.3,72.8,29.84,WSW,248,5.0,5.0,73,0.00,,---,0.00,VWS V14.01,2013-08-28 14:39:00,
2013-08-28 10:44:00,82.4,72.9,29.84,North,350,3.0,8.0,73,0.00,,---,0.00,VWS V14.01,2013-08-28 14:44:00,
2013-08-28 10:49:00,82.6,73.1,29.84,WSW,257,5.0,8.0,73,0.00,,---,0.00,VWS V14.01,2013-08-28 14:49:00,
2013-08-28 10:54:00,82.9,73.4,29.84,NNW,348,5.0,8.0,73,0.00,,---,0.00,VWS V14.01,2013-08-28 14:54:00,
2013-08-28 10:59:00,83.0,73.5,29.84,NNW,330,5.0,9.0,73,0.00,,---,0.00,VWS V14.01,2013-08-28 14:59:00,
2013-08-28 11:00:00,83.0,73.5,29.84,NNW,340,5.0,9.0,73,0.00,,---,0.00,VWS V14.01,2013-08-28 15:00:00,
2013-08-28 11:04:00,82.7,73.2,29.84,NNW,335,7.0,9.0,73,0.00,,---,0.00,VWS V14.01,2013-08-28 15:04:00,
2013-08-28 11:09:00,82.4,73.3,29.84,NNW,346,8.0,9.0,74,0.00,,---,0.00,VWS V14.01,2013-08-28 15:09:00,
2013-08-28 11:14:00,82.3,73.2,29.84,North,11,5.0,9.0,74,0.00,,---,0.00,VWS V14.01,2013-08-28 15:14:00,
2013-08-28 11:19:00,82.3,73.2,29.85,NNW,335,4.0,10.0,74,0.00,,---,0.00,VWS V14.01,2013-08-28 15:19:00,
2013-08-28 11:24:00,82.1,73.4,29.84,NW,323,3.0,10.0,75,0.00,,---,0.00,VWS V14.01,2013-08-28 15:24:00,
2013-08-28 11:29:00,82.0,73.3,29.84,North,351,5.0,10.0,75,0.00,,---,0.00,VWS V14.01,2013-08-28 15:29:00,
2013-08-28 11:30:00,81.9,73.2,29.85,NNW,337,3.0,10.0,75,0.00,,---,0.00,VWS V14.01,2013-08-28 15:30:00,
2013-08-28 11:34:00,81.9,74.0,29.85,North,352,4.0,6.0,77,0.00,,---,0.00,VWS V14.01,2013-08-28 15:34:00,
2013-08-28 11:39:00,81.5,73.2,29.85,NNW,335,5.0,12.0,76,0.00,,---,0.00,VWS V14.01,2013-08-28 15:39:00,
2013-08-28 11:44:00,81.2,73.3,29.85,NNW,340,5.0,12.0,77,0.00,,---,0.00,VWS V14.01,2013-08-28 15:44:00,
2013-08-28 11:49:00,81.0,73.1,29.85,North,5,4.0,12.0,77,0.00,,---,0.00,VWS V14.01,2013-08-28 15:49:00,
2013-08-28 11:54:00,80.7,73.2,29.85,NNW,337,7.0,12.0,78,0.00,,---,0.00,VWS V14.01,2013-08-28 15:54:00,
2013-08-28 11:59:00,80.5,73.4,29.85,NNW,348,8.0,12.0,79,0.00,,---,0.00,VWS V14.01,2013-08-28 15:59:00,
2013-08-28 12:00:00,80.4,73.3,29.85,NNW,347,3.0,12.0,79,0.00,,---,0.00,VWS V14.01,2013-08-28 16:00:00,
2013-08-28 12:04:00,80.4,73.7,29.85,NW,316,4.0,7.0,80,0.00,,---,0.00,VWS V14.01,2013-08-28 16:04:00,
2013-08-28 12:09:00,80.6,73.9,29.85,NW,323,3.0,7.0,80,0.00,,---,0.00,VWS V14.01,2013-08-28 16:09:00,
2013-08-28 12:14:00,80.8,73.7,29.85,NNE,13,5.0,7.0,79,0.00,,---,0.00,VWS V14.01,2013-08-28 16:14:00,
2013-08-28 12:19:00,81.0,73.9,29.85,North,9,5.0,7.0,79,0.00,,---,0.00,VWS V14.01,2013-08-28 16:19:00,
2013-08-28 12:24:00,81.0,74.2,29.85,NNE,16,3.0,9.0,80,0.00,,---,0.00,VWS V14.01,2013-08-28 16:24:00,
2013-08-28 12:29:00,81.1,74.0,29.85,NNW,327,3.0,9.0,79,0.00,,---,0.00,VWS V14.01,2013-08-28 16:29:00,
2013-08-28 12:30:00,81.0,73.9,29.85,NNW,330,5.0,9.0,79,0.00,,---,0.00,VWS V14.01,2013-08-28 16:30:00,
2013-08-28 12:34:00,81.0,73.9,29.85,North,354,3.0,7.0,79,0.00,,---,0.00,VWS V14.01,2013-08-28 16:34:00,
2013-08-28 12:39:00,81.1,74.3,29.85,NNE,20,3.0,7.0,80,0.00,,---,0.00,VWS V14.01,2013-08-28 16:39:00,
2013-08-28 12:44:00,81.1,74.3,29.85,NNW,331,2.0,7.0,80,0.00,,---,0.00,VWS V14.01,2013-08-28 16:44:00,
2013-08-28 12:49:00,81.3,74.5,29.85,NNW,344,4.0,7.0,80,0.00,,---,0.00,VWS V14.01,2013-08-28 16:49:00,
2013-08-28 12:54:00,81.6,74.8,29.85,NNW,330,3.0,7.0,80,0.00,,---,0.00,VWS V14.01,2013-08-28 16:54:00,
2013-08-28 12:59:00,82.2,74.7,29.85,North,352,2.0,7.0,78,0.00,,---,0.00,VWS V14.01,2013-08-28 16:59:00,
2013-08-28 13:00:00,82.4,75.2,29.85,SW,233,2.0,7.0,79,0.00,,---,0.00,VWS V14.01,2013-08-28 17:00:00,
2013-08-28 13:04:00,83.0,75.1,29.85,NW,314,3.0,3.0,77,0.00,,---,0.00,VWS V14.01,2013-08-28 17:04:00,
2013-08-28 13:09:00,83.5,75.1,29.85,North,349,4.0,6.0,76,0.00,,---,0.00,VWS V14.01,2013-08-28 17:09:00,
2013-08-28 13:14:00,83.6,74.4,29.85,SW,236,1.0,6.0,74,0.00,,---,0.00,VWS V14.01,2013-08-28 17:14:00,
2013-08-28 13:19:00,83.9,75.1,29.85,North,352,1.0,6.0,75,0.00,,---,0.00,VWS V14.01,2013-08-28 17:19:00,
2013-08-28 13:24:00,84.1,75.3,29.85,NNE,18,4.0,6.0,75,0.00,,---,0.00,VWS V14.01,2013-08-28 17:24:00,
2013-08-28 13:29:00,84.0,74.8,29.85,North,352,3.0,7.0,74,0.00,,---,0.00,VWS V14.01,2013-08-28 17:29:00,
2013-08-28 13:30:00,83.9,75.1,29.85,North,359,3.0,7.0,75,0.00,,---,0.00,VWS V14.01,2013-08-28 17:30:00,
2013-08-28 13:34:00,83.7,75.3,29.85,WNW,289,2.0,7.0,76,0.00,,---,0.00,VWS V14.01,2013-08-28 17:34:00,
2013-08-28 13:39:00,83.4,75.1,29.85,NNW,343,3.0,7.0,76,0.00,,---,0.00,VWS V14.01,2013-08-28 17:39:00,
2013-08-28 13:44:00,83.2,74.8,29.85,NNW,347,4.0,9.0,76,0.00,,---,0.00,VWS V14.01,2013-08-28 17:44:00,
2013-08-28 13:49:00,83.4,75.4,29.85,NNE,32,6.0,9.0,77,0.00,,---,0.00,VWS V14.01,2013-08-28 17:49:00,
2013-08-28 13:54:00,83.6,75.6,29.85,West,280,2.0,13.0,77,0.00,,---,0.00,VWS V14.01,2013-08-28 17:54:00,
2013-08-28 13:59:00,84.0,76.4,29.85,NNW,342,7.0,13.0,78,0.00,,---,0.00,VWS V14.01,2013-08-28 17:59:00,
2013-08-28 14:00:00,84.1,75.3,29.85,North,352,6.0,13.0,75,0.00,,---,0.00,VWS V14.01,2013-08-28 18:00:00,
2013-08-28 14:04:00,84.1,75.7,29.85,NW,322,2.0,7.0,76,0.00,,---,0.00,VWS V14.01,2013-08-28 18:04:00,
2013-08-28 14:09:00,83.8,75.8,29.86,North,6,6.0,7.0,77,0.00,,---,0.00,VWS V14.01,2013-08-28 18:09:00,
2013-08-28 14:14:00,83.1,75.5,29.86,NNW,329,7.0,10.0,78,0.00,,---,0.00,VWS V14.01,2013-08-28 18:14:00,
2013-08-28 14:19:00,83.2,76.0,29.86,North,356,7.0,10.0,79,0.00,,---,0.00,VWS V14.01,2013-08-28 18:19:00,
2013-08-28 14:24:00,83.2,75.6,29.86,NW,322,2.0,10.0,78,0.00,,---,0.00,VWS V14.01,2013-08-28 18:24:00,
2013-08-28 14:29:00,82.8,75.2,29.86,North,356,4.0,10.0,78,0.00,,---,0.00,VWS V14.01,2013-08-28 18:29:00,
2013-08-28 14:30:00,82.7,75.5,29.86,NNW,347,3.0,10.0,79,0.00,,---,0.00,VWS V14.01,2013-08-28 18:30:00,
2013-08-28 14:34:00,82.5,74.9,29.86,NNW,329,5.0,8.0,78,0.00,,---,0.00,VWS V14.01,2013-08-28 18:34:00,
2013-08-28 14:39:00,82.8,75.6,29.86,North,356,4.0,8.0,79,0.00,,---,0.00,VWS V14.01,2013-08-28 18:39:00,
2013-08-28 14:44:00,83.0,75.1,29.86,NNE,24,6.0,8.0,77,0.00,,---,0.00,VWS V14.01,2013-08-28 18:44:00,
2013-08-28 14:49:00,83.3,74.9,29.86,NW,312,3.0,10.0,76,0.00,,---,0.00,VWS V14.01,2013-08-28 18:49:00,
2013-08-28 14:53:00,84.4,76.0,29.86,NW,307,3.0,10.0,76,0.00,,---,0.00,VWS V14.01,2013-08-28 18:53:00,
2013-08-28 14:59:00,84.3,75.1,29.86,NNW,346,5.0,11.0,74,0.00,,---,0.00,VWS V14.01,2013-08-28 18:59:00,
2013-08-28 15:00:00,84.3,75.1,29.86,NNE,18,5.0,11.0,74,0.00,,---,0.00,VWS V14.01,2013-08-28 19:00:00,
2013-08-28 15:04:00,84.3,75.1,29.86,NNW,344,4.0,7.0,74,0.00,,---,0.00,VWS V14.01,2013-08-28 19:04:00,
2013-08-28 15:08:00,84.3,75.1,29.86,North,5,8.0,11.0,74,0.00,,---,0.00,VWS V14.01,2013-08-28 19:08:00,
2013-08-28 15:13:00,84.4,74.8,29.86,NW,318,4.0,11.0,73,0.00,,---,0.00,VWS V14.01,2013-08-28 19:13:00,
2013-08-28 15:18:00,84.2,74.6,29.86,NW,311,3.0,11.0,73,0.00,,---,0.00,VWS V14.01,2013-08-28 19:18:00,
2013-08-28 15:23:00,84.5,76.1,29.86,NW,316,5.0,11.0,76,0.00,,---,0.00,VWS V14.01,2013-08-28 19:23:00,
2013-08-28 15:28:00,85.0,75.8,29.86,NNW,331,3.0,11.0,74,0.00,,---,0.00,VWS V14.01,2013-08-28 19:28:00,
2013-08-28 15:30:00,85.4,76.2,29.86,NW,322,3.0,11.0,74,0.00,,---,0.00,VWS V14.01,2013-08-28 19:30:00,
2013-08-28 15:33:00,85.7,76.1,29.86,NW,323,4.0,7.0,73,0.00,,---,0.00,VWS V14.01,2013-08-28 19:33:00,
2013-08-28 15:38:00,85.4,75.3,29.86,NW,319,4.0,9.0,72,0.00,,---,0.00,VWS V14.01,2013-08-28 19:38:00,
2013-08-28 15:43:00,85.2,74.7,29.86,NW,312,4.0,9.0,71,0.00,,---,0.00,VWS V14.01,2013-08-28 19:43:00,
2013-08-28 15:48:00,84.7,74.7,29.86,NNW,344,7.0,9.0,72,0.00,,---,0.00,VWS V14.01,2013-08-28 19:48:00,
2013-08-28 15:53:00,84.6,74.2,29.86,North,351,7.0,11.0,71,0.00,,---,0.00,VWS V14.01,2013-08-28 19:53:00,
2013-08-28 15:58:00,85.3,74.8,29.86,NNW,327,4.0,11.0,71,0.00,,---,0.00,VWS V14.01,2013-08-28 19:58:00,
2013-08-28 16:00:00,85.4,74.9,29.86,ENE,60,6.0,11.0,71,0.00,,---,0.00,VWS V14.01,2013-08-28 20:00:00,
2013-08-28 16:03:00,85.6,75.1,29.86,North,354,5.0,9.0,71,0.00,,---,0.00,VWS V14.01,2013-08-28 20:03:00,
2013-08-28 16:08:00,85.7,74.4,29.85,NW,318,5.0,9.0,69,0.00,,---,0.00,VWS V14.01,2013-08-28 20:08:00,
2013-08-28 16:13:00,85.9,74.6,29.86,NW,316,4.0,9.0,69,0.00,,---,0.00,VWS V14.01,2013-08-28 20:13:00,
2013-08-28 16:18:00,85.0,73.7,29.86,NW,323,3.0,9.0,69,0.00,,---,0.00,VWS V14.01,2013-08-28 20:18:00,
2013-08-28 16:23:00,84.7,74.3,29.86,NNW,348,3.0,9.0,71,0.00,,---,0.00,VWS V14.01,2013-08-28 20:23:00,
2013-08-28 16:28:00,84.6,74.2,29.86,North,11,3.0,9.0,71,0.00,,---,0.00,VWS V14.01,2013-08-28 20:28:00,
2013-08-28 16:30:00,84.6,73.7,29.86,NNW,348,6.0,9.0,70,0.00,,---,0.00,VWS V14.01,2013-08-28 20:30:00,
2013-08-28 16:33:00,84.4,73.6,29.86,NNW,335,5.0,8.0,70,0.00,,---,0.00,VWS V14.01,2013-08-28 20:33:00,
2013-08-28 16:38:00,84.5,73.2,29.86,NNW,328,5.0,8.0,69,0.00,,---,0.00,VWS V14.01,2013-08-28 20:38:00,
2013-08-28 16:43:00,84.3,73.9,29.86,NE,44,5.0,10.0,71,0.00,,---,0.00,VWS V14.01,2013-08-28 20:43:00,
2013-08-28 16:48:00,84.3,73.9,29.86,North,11,7.0,10.0,71,0.00,,---,0.00,VWS V14.01,2013-08-28 20:48:00,
2013-08-28 16:53:00,84.2,74.2,29.86,NNW,327,4.0,10.0,72,0.00,,---,0.00,VWS V14.01,2013-08-28 20:53:00,
2013-08-28 16:58:00,84.5,74.5,29.86,NNW,339,4.0,10.0,72,0.00,,---,0.00,VWS V14.01,2013-08-28 20:58:00,
2013-08-28 17:00:00,84.7,75.1,29.86,NW,312,5.0,10.0,73,0.00,,---,0.00,VWS V14.01,2013-08-28 21:00:00,
2013-08-28 17:03:00,84.6,73.7,29.87,NNW,339,7.0,11.0,70,0.00,,---,0.00,VWS V14.01,2013-08-28 21:03:00,
2013-08-28 17:08:00,84.1,73.7,29.86,NNW,327,6.0,11.0,71,0.00,,---,0.00,VWS V14.01,2013-08-28 21:08:00,
2013-08-28 17:13:00,84.4,74.4,29.87,NNW,328,5.0,11.0,72,0.00,,---,0.00,VWS V14.01,2013-08-28 21:13:00,
2013-08-28 17:18:00,84.4,74.8,29.87,NNW,348,5.0,11.0,73,0.00,,---,0.00,VWS V14.01,2013-08-28 21:18:00,
2013-08-28 17:23:00,84.4,74.4,29.87,North,355,5.0,11.0,72,0.00,,---,0.00,VWS V14.01,2013-08-28 21:23:00,
2013-08-28 17:28:00,84.0,74.0,29.87,NNE,16,6.0,11.0,72,0.00,,---,0.00,VWS V14.01,2013-08-28 21:28:00,
2013-08-28 17:30:00,83.7,73.7,29.87,NW,316,3.0,11.0,72,0.00,,---,0.00,VWS V14.01,2013-08-28 21:30:00,
2013-08-28 17:33:00,83.4,73.8,29.87,NNE,20,5.0,7.0,73,0.00,,---,0.00,VWS V14.01,2013-08-28 21:33:00,
2013-08-28 17:38:00,83.6,74.0,29.87,NNW,335,3.0,7.0,73,0.00,,---,0.00,VWS V14.01,2013-08-28 21:38:00,
2013-08-28 17:43:00,84.2,73.8,29.87,NW,321,2.0,7.0,71,0.00,,---,0.00,VWS V14.01,2013-08-28 21:43:00,
2013-08-28 17:48:00,84.5,73.2,29.87,NNW,347,6.0,12.0,69,0.00,,---,0.00,VWS V14.01,2013-08-28 21:48:00,
2013-08-28 17:53:00,84.6,74.2,29.87,NW,323,3.0,12.0,71,0.00,,---,0.00,VWS V14.01,2013-08-28 21:53:00,
2013-08-28 17:58:00,84.3,73.9,29.87,NNW,335,2.0,12.0,71,0.00,,---,0.00,VWS V14.01,2013-08-28 21:58:00,
2013-08-28 18:00:00,84.2,74.2,29.87,NNW,332,3.0,12.0,72,0.00,,---,0.00,VWS V14.01,2013-08-28 22:00:00,
2013-08-28 18:03:00,84.0,73.6,29.87,NNW,344,5.0,6.0,71,0.00,,---,0.00,VWS V14.01,2013-08-28 22:03:00,
2013-08-28 18:08:00,83.3,73.3,29.87,NNE,25,6.0,12.0,72,0.00,,---,0.00,VWS V14.01,2013-08-28 22:08:00,
2013-08-28 18:13:00,82.9,73.4,29.87,North,349,4.0,12.0,73,0.00,,---,0.00,VWS V14.01,2013-08-28 22:13:00,
2013-08-28 18:18:00,83.1,73.1,29.87,North,10,4.0,12.0,72,0.00,,---,0.00,VWS V14.01,2013-08-28 22:18:00,
2013-08-28 18:23:00,83.4,73.8,29.87,NNW,338,2.0,12.0,73,0.00,,---,0.00,VWS V14.01,2013-08-28 22:23:00,
2013-08-28 18:28:00,83.4,73.8,29.87,North,5,5.0,12.0,73,0.00,,---,0.00,VWS V14.01,2013-08-28 22:28:00,
2013-08-28 18:30:00,83.3,73.8,29.87,North,350,4.0,12.0,73,0.00,,---,0.00,VWS V14.01,2013-08-28 22:30:00,
2013-08-28 18:33:00,83.3,74.2,29.87,North,8,4.0,7.0,74,0.00,,---,0.00,VWS V14.01,2013-08-28 22:33:00,
2013-08-28 18:38:00,83.3,73.3,29.87,NNE,15,6.0,7.0,72,0.00,,---,0.00,VWS V14.01,2013-08-28 22:38:00,
2013-08-28 18:43:00,83.2,73.7,29.87,NW,309,4.0,8.0,73,0.00,,---,0.00,VWS V14.01,2013-08-28 22:43:00,
2013-08-28 18:48:00,83.2,73.7,29.88,NNW,341,2.0,8.0,73,0.00,,---,0.00,VWS V14.01,2013-08-28 22:48:00,
2013-08-28 18:53:00,83.3,74.2,29.88,North,353,3.0,8.0,74,0.00,,---,0.00,VWS V14.01,2013-08-28 22:53:00,
2013-08-28 18:58:00,83.0,73.1,29.88,NNW,327,6.0,9.0,72,0.00,,---,0.00,VWS V14.01,2013-08-28 22:58:00,
2013-08-28 19:00:00,83.0,73.5,29.88,NNW,333,2.0,9.0,73,0.00,,---,0.00,VWS V14.01,2013-08-28 23:00:00,
2013-08-28 19:03:00,82.7,73.2,29.88,NNE,25,6.0,7.0,73,0.00,,---,0.00,VWS V14.01,2013-08-28 23:03:00,
2013-08-28 19:08:00,82.5,72.6,29.88,NNW,335,3.0,7.0,72,0.00,,---,0.00,VWS V14.01,2013-08-28 23:08:00,
2013-08-28 19:13:00,82.3,72.8,29.88,NNE,18,5.0,7.0,73,0.00,,---,0.00,VWS V14.01,2013-08-28 23:13:00,
2013-08-28 19:18:00,82.0,72.9,29.88,NNW,348,4.0,8.0,74,0.00,,---,0.00,VWS V14.01,2013-08-28 23:18:00,
2013-08-28 19:23:00,81.8,72.7,29.89,NW,319,4.0,11.0,74,0.00,,---,0.00,VWS V14.01,2013-08-28 23:23:00,
2013-08-28 19:28:00,81.6,72.5,29.89,NNW,331,2.0,11.0,74,0.00,,---,0.00,VWS V14.01,2013-08-28 23:28:00,
2013-08-28 19:30:00,81.5,72.8,29.89,NNW,342,2.0,11.0,75,0.00,,---,0.00,VWS V14.01,2013-08-28 23:30:00,
2013-08-28 19:33:00,81.2,72.5,29.89,North,356,3.0,5.0,75,0.00,,---,0.00,VWS V14.01,2013-08-28 23:33:00,
2013-08-28 19:38:00,80.9,72.6,29.89,North,350,4.0,5.0,76,0.00,,---,0.00,VWS V14.01,2013-08-28 23:38:00,
2013-08-28 19:44:00,80.3,72.1,29.89,North,352,5.0,5.0,76,0.00,,---,0.00,VWS V14.01,2013-08-28 23:44:00,
2013-08-28 19:49:00,79.9,72.1,29.89,NNW,338,4.0,8.0,77,0.00,,---,0.00,VWS V14.01,2013-08-28 23:49:00,
2013-08-28 19:54:00,79.7,71.9,29.89,NNW,339,3.0,8.0,77,0.00,,---,0.00,VWS V14.01,2013-08-28 23:54:00,
2013-08-28 19:59:00,79.4,71.9,29.89,NNE,13,2.0,8.0,78,0.00,,---,0.00,VWS V14.01,2013-08-28 23:59:00,
2013-08-28 20:00:00,79.3,71.8,29.89,NNW,345,3.0,8.0,78,0.00,,---,0.00,VWS V14.01,2013-08-29 00:00:00,
2013-08-28 20:04:00,79.2,71.8,29.89,NNW,339,3.0,7.0,78,0.00,,---,0.00,VWS V14.01,2013-08-29 00:04:00,
2013-08-28 20:09:00,79.0,71.6,29.89,North,7,2.0,7.0,78,0.00,,---,0.00,VWS V14.01,2013-08-29 00:09:00,
2013-08-28 20:14:00,78.7,71.6,29.90,NNW,344,2.0,7.0,79,0.00,,---,0.00,VWS V14.01,2013-08-29 00:14:00,
2013-08-28 20:18:00,78.5,71.8,29.90,NNW,333,2.0,7.0,80,0.00,,---,0.00,VWS V14.01,2013-08-29 00:18:00,
2013-08-28 20:24:00,78.2,71.5,29.90,NNE,19,4.0,7.0,80,0.00,,---,0.00,VWS V14.01,2013-08-29 00:24:00,
2013-08-28 20:28:00,77.9,71.6,29.90,NW,325,2.0,7.0,81,0.00,,---,0.00,VWS V14.01,2013-08-29 00:28:00,
2013-08-28 20:30:00,77.8,71.5,29.90,NNW,329,2.0,7.0,81,0.00,,---,0.00,VWS V14.01,2013-08-29 00:30:00,
2013-08-28 20:33:00,77.5,71.2,29.90,NNW,340,3.0,4.0,81,0.00,,---,0.00,VWS V14.01,2013-08-29 00:33:00,
2013-08-28 20:38:00,77.3,71.4,29.91,NNW,330,1.0,4.0,82,0.00,,---,0.00,VWS V14.01,2013-08-29 00:38:00,
2013-08-28 20:43:00,76.9,71.3,29.91,North,10,1.0,4.0,83,0.00,,---,0.00,VWS V14.01,2013-08-29 00:43:00,
2013-08-28 20:48:00,76.6,71.1,29.91,North,6,0.0,4.0,83,0.00,,---,0.00,VWS V14.01,2013-08-29 00:48:00,
2013-08-28 20:53:00,76.2,71.0,29.91,NNW,339,1.0,4.0,84,0.00,,---,0.00,VWS V14.01,2013-08-29 00:53:00,
2013-08-28 20:58:00,75.8,71.0,29.92,North,349,2.0,4.0,85,0.00,,---,0.00,VWS V14.01,2013-08-29 00:58:00,
2013-08-28 21:00:00,75.6,70.4,29.92,North,351,1.0,4.0,84,0.00,,---,0.00,VWS V14.01,2013-08-29 01:00:00,
2013-08-28 21:03:00,75.4,70.9,29.92,North,9,3.0,3.0,86,0.00,,---,0.00,VWS V14.01,2013-08-29 01:03:00,
2013-08-28 21:08:00,75.7,71.2,29.93,NNE,30,4.0,4.0,86,0.00,,---,0.00,VWS V14.01,2013-08-29 01:08:00,
2013-08-28 21:13:00,76.0,71.2,29.93,NNW,338,4.0,5.0,85,0.00,,---,0.00,VWS V14.01,2013-08-29 01:13:00,
2013-08-28 21:18:00,76.2,71.4,29.93,NNW,343,3.0,5.0,85,0.00,,---,0.00,VWS V14.01,2013-08-29 01:18:00,
2013-08-28 21:23:00,76.1,71.3,29.93,NNW,345,2.0,5.0,85,0.00,,---,0.00,VWS V14.01,2013-08-29 01:23:00,
2013-08-28 21:28:00,76.2,71.4,29.93,NNE,18,4.0,6.0,85,0.00,,---,0.00,VWS V14.01,2013-08-29 01:28:00,
2013-08-28 21:30:00,76.2,71.4,29.93,North,352,2.0,6.0,85,0.00,,---,0.00,VWS V14.01,2013-08-29 01:30:00,
2013-08-28 21:34:00,76.2,71.4,29.93,NNW,340,1.0,3.0,85,0.00,,---,0.00,VWS V14.01,2013-08-29 01:34:00,
2013-08-28 21:39:00,76.0,71.2,29.93,North,349,1.0,5.0,85,0.00,,---,0.00,VWS V14.01,2013-08-29 01:39:00,
2013-08-28 21:44:00,75.8,71.3,29.93,North,8,2.0,5.0,86,0.00,,---,0.00,VWS V14.01,2013-08-29 01:44:00,
2013-08-28 21:49:00,75.5,71.0,29.93,North,352,1.0,5.0,86,0.00,,---,0.00,VWS V14.01,2013-08-29 01:49:00,
2013-08-28 21:54:00,75.0,70.9,29.93,NNW,346,1.0,5.0,87,0.00,,---,0.00,VWS V14.01,2013-08-29 01:54:00,
2013-08-28 21:59:00,74.6,70.5,29.93,NNW,345,0.0,5.0,87,0.00,,---,0.00,VWS V14.01,2013-08-29 01:59:00,
2013-08-28 22:00:00,74.4,70.3,29.94,NNW,346,0.0,5.0,87,0.00,,---,0.00,VWS V14.01,2013-08-29 02:00:00,
2013-08-28 22:04:00,74.0,70.2,29.93,NNW,347,0.0,0.0,88,0.00,,---,0.00,VWS V14.01,2013-08-29 02:04:00,
2013-08-28 22:09:00,73.7,70.3,29.94,NNW,348,0.0,0.0,89,0.00,,---,0.00,VWS V14.01,2013-08-29 02:09:00,
2013-08-28 22:14:00,73.5,70.4,29.94,NNW,327,0.0,2.0,90,0.00,,---,0.00,VWS V14.01,2013-08-29 02:14:00,
2013-08-28 22:19:00,73.3,70.2,29.94,NNW,335,0.0,2.0,90,0.00,,---,0.00,VWS V14.01,2013-08-29 02:19:00,
2013-08-28 22:24:00,73.2,70.1,29.94,North,350,1.0,2.0,90,0.00,,---,0.00,VWS V14.01,2013-08-29 02:24:00,
2013-08-28 22:29:00,73.0,70.2,29.94,NNW,330,1.0,2.0,91,0.00,,---,0.00,VWS V14.01,2013-08-29 02:29:00,
2013-08-28 22:30:00,73.0,70.2,29.95,NNW,330,0.0,2.0,91,0.00,,---,0.00,VWS V14.01,2013-08-29 02:30:00,
2013-08-28 22:34:00,73.0,70.2,29.95,NNW,346,0.0,2.0,91,0.00,,---,0.00,VWS V14.01,2013-08-29 02:34:00,
2013-08-28 22:39:00,72.9,70.1,29.95,North,351,0.0,2.0,91,0.00,,---,0.00,VWS V14.01,2013-08-29 02:39:00,
2013-08-28 22:44:00,72.8,70.0,29.95,North,1,0.0,2.0,91,0.00,,---,0.00,VWS V14.01,2013-08-29 02:44:00,
2013-08-28 22:49:00,72.8,70.3,29.95,North,1,0.0,3.0,92,0.00,,---,0.00,VWS V14.01,2013-08-29 02:49:00,
2013-08-28 22:54:00,72.7,69.9,29.95,North,355,0.0,3.0,91,0.00,,---,0.00,VWS V14.01,2013-08-29 02:54:00,
2013-08-28 22:59:00,72.7,69.9,29.95,North,11,1.0,3.0,91,0.00,,---,0.00,VWS V14.01,2013-08-29 02:59:00,
2013-08-28 23:00:00,72.7,70.2,29.95,NNW,328,0.0,3.0,92,0.00,,---,0.00,VWS V14.01,2013-08-29 03:00:00,
2013-08-28 23:04:00,72.7,70.2,29.95,NNW,343,2.0,3.0,92,0.00,,---,0.00,VWS V14.01,2013-08-29 03:04:00,
2013-08-28 23:09:00,72.6,70.2,29.95,North,352,2.0,4.0,92,0.00,,---,0.00,VWS V14.01,2013-08-29 03:09:00,
2013-08-28 23:14:00,72.8,70.3,29.95,NNW,335,2.0,4.0,92,0.00,,---,0.00,VWS V14.01,2013-08-29 03:14:00,
2013-08-28 23:19:00,72.9,70.4,29.95,NNW,343,0.0,4.0,92,0.00,,---,0.00,VWS V14.01,2013-08-29 03:19:00,
2013-08-28 23:24:00,72.8,70.3,29.95,NNW,328,1.0,4.0,92,0.00,,---,0.00,VWS V14.01,2013-08-29 03:24:00,
2013-08-28 23:29:00,72.9,70.4,29.96,NNW,331,2.0,4.0,92,0.00,,---,0.00,VWS V14.01,2013-08-29 03:29:00,
2013-08-28 23:30:00,72.9,70.4,29.96,NNW,343,1.0,4.0,92,0.00,,---,0.00,VWS V14.01,2013-08-29 03:30:00,
2013-08-28 23:34:00,72.9,70.1,29.96,North,350,2.0,3.0,91,0.00,,---,0.00,VWS V14.01,2013-08-29 03:34:00,
2013-08-28 23:39:00,72.8,70.0,29.96,NNW,345,1.0,3.0,91,0.00,,---,0.00,VWS V14.01,2013-08-29 03:39:00,
2013-08-28 23:44:00,72.8,70.0,29.96,NNW,340,0.0,3.0,91,0.00,,---,0.00,VWS V14.01,2013-08-29 03:44:00,
2013-08-28 23:49:00,72.7,69.9,29.96,NNW,340,0.0,3.0,91,0.00,,---,0.00,VWS V14.01,2013-08-29 03:49:00,
2013-08-28 23:54:00,72.4,69.6,29.96,NNW,340,0.0,3.0,91,0.00,,---,0.00,VWS V14.01,2013-08-29 03:54:00,
2013-08-28 23:59:00,72.0,69.6,29.96,NNW,340,0.0,3.0,92,0.00,,---,0.00,VWS V14.01,2013-08-29 03:59:00,